Volver al catálogo

COSMOS 1888

ActivoMilitarGEO
NORAD 18384·PAYLOAD·🇷🇺 Russia

Lanzado Oct 1, 1987 desde Baikonur Cosmodrome

Loading…

TLE

ActualizadoSource: Space-Track

Época: Sep 14, 2026, 20:47 UTC

1 18384U 87084A   26257.86627382  .00000123  00000-0  00000-0 0  9991
2 18384  10.6758 325.5448 0003040 256.1259 114.4316  1.00190549142591

Sigue COSMOS 1888 en tiempo real con AllMySat

Download on the App Store